TimeEDT,TemperatureF,Dew PointF,Humidity,Sea Level PressureIn,VisibilityMPH,Wind Direction,Wind SpeedMPH,Gust SpeedMPH,PrecipitationIn,Events,Conditions,WindDirDegrees,DateUTC
12:53 AM,61.0,54.0,78,30.15,10.0,South,6.9,-,N/A,,Overcast,180,2013-09-10 04:53:00
1:53 AM,63.0,55.0,75,30.15,10.0,South,3.5,-,N/A,,Overcast,190,2013-09-10 05:53:00
2:53 AM,64.0,57.0,78,30.15,10.0,South,4.6,-,N/A,,Overcast,190,2013-09-10 06:53:00
3:53 AM,64.9,59.0,81,30.12,10.0,South,6.9,-,N/A,,Overcast,190,2013-09-10 07:53:00
4:07 AM,64.4,59.0,83,30.12,10.0,South,6.9,-,N/A,,Overcast,180,2013-09-10 08:07:00
4:53 AM,66.0,60.1,81,30.13,10.0,South,3.5,-,0.00,,Overcast,180,2013-09-10 08:53:00
5:53 AM,66.0,62.1,87,30.12,10.0,Calm,Calm,-,0.00,,Overcast,0,2013-09-10 09:53:00
6:53 AM,66.0,62.1,87,30.14,10.0,South,5.8,-,N/A,,Overcast,190,2013-09-10 10:53:00
7:22 AM,66.2,62.6,88,30.14,10.0,South,4.6,-,N/A,,Overcast,180,2013-09-10 11:22:00
7:53 AM,66.9,63.0,87,30.13,10.0,South,8.1,-,N/A,,Overcast,190,2013-09-10 11:53:00
8:02 AM,66.2,62.6,88,30.13,10.0,South,5.8,-,N/A,,Overcast,190,2013-09-10 12:02:00
8:53 AM,66.9,64.0,90,30.14,8.0,South,10.4,-,N/A,,Overcast,180,2013-09-10 12:53:00
9:53 AM,69.1,64.9,87,30.14,10.0,South,9.2,16.1,N/A,,Overcast,190,2013-09-10 13:53:00
10:00 AM,69.8,64.4,83,30.14,10.0,South,8.1,-,0.02,,Overcast,190,2013-09-10 14:00:00
10:53 AM,71.1,66.0,84,30.14,10.0,SSW,6.9,17.3,0.02,,Overcast,210,2013-09-10 14:53:00
11:35 AM,71.6,66.2,83,30.13,10.0,South,6.9,-,0.00,,Overcast,190,2013-09-10 15:35:00
11:53 AM,71.1,66.9,87,30.11,5.0,South,9.2,-,0.01,Rain,Light Rain,170,2013-09-10 15:53:00
12:21 PM,71.6,68.0,88,30.08,10.0,SSW,9.2,17.3,0.00,,Mostly Cloudy,200,2013-09-10 16:21:00
12:43 PM,71.6,68.0,88,30.04,10.0,South,15.0,20.7,0.00,,Scattered Clouds,190,2013-09-10 16:43:00
12:53 PM,72.0,68.0,87,30.02,10.0,South,16.1,26.5,0.00,,Scattered Clouds,180,2013-09-10 16:53:00
1:36 PM,73.4,68.0,83,30.08,10.0,NNW,9.2,-,0.00,Rain,Light Rain,330,2013-09-10 17:36:00
1:53 PM,73.0,68.0,84,30.06,10.0,Variable,4.6,-,0.00,,Overcast,0,2013-09-10 17:53:00
2:33 PM,75.2,69.8,83,30.07,10.0,SW,4.6,-,N/A,,Overcast,220,2013-09-10 18:33:00
2:53 PM,75.0,69.1,82,30.07,9.0,SSW,6.9,-,N/A,,Overcast,210,2013-09-10 18:53:00
3:53 PM,79.0,70.0,74,30.05,9.0,SSW,9.2,-,N/A,,Mostly Cloudy,200,2013-09-10 19:53:00
4:17 PM,80.6,69.8,70,30.04,9.0,Variable,6.9,-,N/A,,Scattered Clouds,0,2013-09-10 20:17:00
4:53 PM,80.1,70.0,71,30.04,10.0,SSW,8.1,-,N/A,,Clear,200,2013-09-10 20:53:00
5:53 PM,79.0,70.0,74,30.04,9.0,South,9.2,-,N/A,,Partly Cloudy,190,2013-09-10 21:53:00
6:53 PM,77.0,70.0,79,30.04,10.0,South,9.2,-,N/A,,Clear,180,2013-09-10 22:53:00
7:53 PM,75.0,70.0,84,30.06,10.0,South,5.8,-,N/A,,Clear,170,2013-09-10 23:53:00
8:53 PM,73.9,70.0,87,30.06,10.0,SSW,8.1,-,N/A,,Clear,200,2013-09-11 00:53:00
9:53 PM,73.0,70.0,90,30.06,9.0,South,6.9,-,N/A,,Clear,170,2013-09-11 01:53:00
10:53 PM,73.0,70.0,90,30.07,8.0,SSE,4.6,-,N/A,,Clear,160,2013-09-11 02:53:00
11:53 PM,73.0,70.0,90,30.07,7.0,South,6.9,-,N/A,,Clear,170,2013-09-11 03:53:00